�������l�o���
Date,Time,MP-1(��Sv/h),MP-2(��Sv/h),MP-3(��Sv/h),MP-4(��Sv/h),MP-5(��Sv/h),MP-6(��Sv/h),MP-7(��Sv/h),����,����(m/s),���J
2014/12/30,00:00,0.584,0.376,0.616,0.560,0.561,0.254,0.224,���k��,7.6,��
2014/12/30,00:10,0.584,0.373,0.617,0.560,0.560,0.253,0.225,���k��,5.9,��
2014/12/30,00:20,0.583,0.375,0.618,0.561,0.560,0.252,0.224,���k��,4.7,��
2014/12/30,00:30,0.583,0.374,0.616,0.559,0.561,0.253,0.224,���k��,5.1,��
2014/12/30,00:40,0.583,0.375,0.617,0.559,0.561,0.253,0.225,���k��,5.0,��
2014/12/30,00:50,0.584,0.374,0.616,0.561,0.560,0.253,0.225,�k��,4.2,��
2014/12/30,01:00,0.584,0.375,0.617,0.560,0.561,0.253,0.224,�k��,4.5,��
2014/12/30,01:10,0.581,0.375,0.617,0.559,0.560,0.251,0.224,�k��,4.1,��
2014/12/30,01:20,0.582,0.374,0.617,0.560,0.560,0.252,0.224,���k��,3.9,��
2014/12/30,01:30,0.583,0.375,0.617,0.559,0.559,0.252,0.225,�k��,3.9,��
2014/12/30,01:40,0.583,0.374,0.616,0.561,0.560,0.253,0.225,�k��,3.3,��
2014/12/30,01:50,0.583,0.376,0.618,0.559,0.559,0.254,0.224,���k��,3.2,��
2014/12/30,02:00,0.582,0.374,0.617,0.561,0.559,0.254,0.225,�k��,4.1,��
2014/12/30,02:10,0.583,0.374,0.618,0.560,0.559,0.253,0.224,�k��,5.3,��
2014/12/30,02:20,0.583,0.374,0.616,0.559,0.559,0.253,0.224,�k��,4.1,��
2014/12/30,02:30,0.581,0.373,0.615,0.560,0.561,0.253,0.224,�k��,3.7,��
2014/12/30,02:40,0.581,0.374,0.617,0.560,0.560,0.253,0.225,�k��,4.1,��
2014/12/30,02:50,0.584,0.373,0.616,0.560,0.558,0.253,0.226,���k��,3.5,��
2014/12/30,03:00,0.582,0.375,0.619,0.560,0.561,0.252,0.225,���k��,3.9,��
2014/12/30,03:10,0.582,0.374,0.618,0.561,0.559,0.253,0.224,�k��,4.3,��
2014/12/30,03:20,0.584,0.373,0.617,0.560,0.559,0.252,0.224,�k��,4.6,��
2014/12/30,03:30,0.584,0.374,0.617,0.562,0.561,0.253,0.225,���k��,4.2,��
2014/12/30,03:40,0.583,0.373,0.618,0.560,0.559,0.253,0.225,��,3.2,��
2014/12/30,03:50,0.581,0.374,0.618,0.561,0.560,0.253,0.224,��,2.8,��
2014/12/30,04:00,0.581,0.374,0.618,0.558,0.560,0.253,0.224,��,3.3,��
2014/12/30,04:10,0.583,0.374,0.616,0.561,0.560,0.252,0.224,��,3.7,��
2014/12/30,04:20,0.582,0.374,0.617,0.561,0.560,0.254,0.225,���k��,3.3,��
2014/12/30,04:30,0.584,0.373,0.617,0.561,0.560,0.253,0.223,��,3.3,��
2014/12/30,04:40,0.583,0.374,0.616,0.562,0.561,0.253,0.226,���k��,3.4,��
2014/12/30,04:50,0.583,0.374,0.618,0.561,0.558,0.252,0.226,���k��,3.2,��
2014/12/30,05:00,0.582,0.374,0.618,0.562,0.560,0.253,0.225,��,2.7,��
2014/12/30,05:10,0.582,0.374,0.617,0.561,0.560,0.253,0.224,���k��,2.5,��
2014/12/30,05:20,0.584,0.374,0.619,0.562,0.561,0.254,0.224,���k��,3.1,��
2014/12/30,05:30,0.582,0.375,0.619,0.560,0.560,0.252,0.224,���k��,2.8,��
2014/12/30,05:40,0.583,0.373,0.618,0.561,0.559,0.252,0.224,���k��,2.4,��
2014/12/30,05:50,0.582,0.374,0.618,0.560,0.558,0.253,0.224,��,1.5,��
2014/12/30,06:00,0.582,0.374,0.618,0.561,0.560,0.254,0.223,��,2.5,��
2014/12/30,06:10,0.583,0.374,0.619,0.561,0.559,0.252,0.224,��,0.9,��
2014/12/30,06:20,0.582,0.374,0.618,0.562,0.559,0.252,0.223,�쐼,0.9,��
2014/12/30,06:30,0.583,0.373,0.617,0.562,0.559,0.253,0.224,���쐼,1.4,��
2014/12/30,06:40,0.582,0.374,0.617,0.560,0.560,0.252,0.224,���쐼,0.8,��
2014/12/30,06:50,0.584,0.375,0.618,0.562,0.559,0.253,0.223,��쐼,1.0,��
2014/12/30,07:00,0.582,0.374,0.619,0.562,0.559,0.253,0.223,��쐼,1.7,��
2014/12/30,07:10,0.583,0.374,0.619,0.563,0.559,0.254,0.225,��,1.1,��
2014/12/30,07:20,0.583,0.374,0.617,0.561,0.559,0.254,0.223,�쐼,0.6,��
2014/12/30,07:30,0.582,0.375,0.618,0.562,0.561,0.252,0.224,��,2.1,��
2014/12/30,07:40,0.583,0.375,0.617,0.560,0.558,0.253,0.224,��,3.9,��
2014/12/30,07:50,0.582,0.374,0.618,0.561,0.560,0.254,0.224,��,3.9,��
2014/12/30,08:00,0.581,0.373,0.619,0.560,0.559,0.253,0.225,��,3.8,��
2014/12/30,08:10,0.583,0.374,0.618,0.561,0.560,0.253,0.223,���k��,3.6,��
2014/12/30,08:20,0.582,0.374,0.619,0.562,0.561,0.252,0.224,���k��,5.0,��
2014/12/30,08:30,0.581,0.373,0.619,0.562,0.559,0.252,0.225,���k��,3.3,��
2014/12/30,08:40,0.583,0.375,0.620,0.561,0.561,0.252,0.224,�k��,1.9,��
2014/12/30,08:50,0.583,0.374,0.620,0.561,0.559,0.253,0.224,�k�k��,1.7,��
2014/12/30,09:00,0.582,0.375,0.616,0.562,0.561,0.252,0.225,�k�k��,0.6,��
2014/12/30,09:10,0.583,0.374,0.620,0.562,0.560,0.253,0.225,�쐼,1.7,��
2014/12/30,09:20,0.583,0.375,0.621,0.561,0.559,0.252,0.224,�쐼,2.3,��
2014/12/30,09:30,0.584,0.374,0.620,0.562,0.560,0.253,0.224,�쐼,2.1,��
2014/12/30,09:40,0.584,0.374,0.619,0.561,0.562,0.253,0.224,���쐼,1.7,��
2014/12/30,09:50,0.583,0.374,0.618,0.561,0.559,0.253,0.224,�쐼,1.5,��
2014/12/30,10:00,0.584,0.375,0.618,0.565,0.561,0.253,0.225,�쐼,1.2,��
2014/12/30,10:10,0.583,0.374,0.621,0.563,0.560,0.253,0.226,���쐼,0.8,��
2014/12/30,10:20,0.584,0.375,0.620,0.563,0.561,0.253,0.223,��쐼,1.7,��
2014/12/30,10:30,0.586,0.378,0.621,0.564,0.561,0.253,0.225,��,1.9,��
2014/12/30,10:40,0.585,0.376,0.618,0.564,0.560,0.254,0.224,��쓌,2.2,��
2014/12/30,10:50,0.585,0.378,0.619,0.564,0.563,0.254,0.225,��쓌,2.7,��
2014/12/30,11:00,0.585,0.377,0.620,0.565,0.562,0.254,0.225,��쓌,3.1,��
2014/12/30,11:10,0.585,0.376,0.619,0.564,0.564,0.254,0.224,��,2.4,��
2014/12/30,11:20,0.585,0.377,0.621,0.564,0.560,0.255,0.226,��,2.1,��
2014/12/30,11:30,0.585,0.378,0.620,0.566,0.561,0.253,0.224,��쓌,0.9,��
2014/12/30,11:40,0.585,0.377,0.622,0.565,0.563,0.256,0.224,���쓌,1.6,��
2014/12/30,11:50,0.586,0.377,0.619,0.564,0.562,0.254,0.226,�쓌,1.1,��
2014/12/30,12:00,0.584,0.377,0.621,0.565,0.563,0.255,0.225,��쐼,0.7,��
2014/12/30,12:10,0.586,0.378,0.620,0.566,0.562,0.255,0.226,�k,1.4,��
2014/12/30,12:20,0.587,0.376,0.620,0.564,0.563,0.253,0.225,��,1.1,��
2014/12/30,12:30,0.585,0.378,0.618,0.564,0.565,0.254,0.224,���쐼,1.3,��
2014/12/30,12:40,0.586,0.377,0.618,0.565,0.563,0.255,0.226,��,2.0,��
2014/12/30,12:50,0.586,0.375,0.620,0.564,0.562,0.253,0.226,���k��,5.6,��
2014/12/30,13:00,0.586,0.378,0.620,0.565,0.561,0.255,0.225,��,7.4,�L
2014/12/30,13:10,0.587,0.378,0.621,0.565,0.564,0.256,0.226,��,6.3,�L
2014/12/30,13:20,0.587,0.378,0.620,0.565,0.562,0.256,0.228,���k��,5.8,�L
2014/12/30,13:30,0.588,0.377,0.623,0.565,0.564,0.256,0.229,��,5.3,�L
2014/12/30,13:40,0.589,0.379,0.623,0.567,0.564,0.256,0.230,��,5.2,��
2014/12/30,13:50,0.588,0.378,0.623,0.567,0.562,0.257,0.228,���k��,6.4,�L
2014/12/30,14:00,0.587,0.379,0.624,0.566,0.564,0.257,0.230,��,11.0,�L
2014/12/30,14:10,0.590,0.379,0.624,0.567,0.564,0.258,0.230,���쐼,10.4,��
2014/12/30,14:20,0.587,0.380,0.624,0.566,0.566,0.257,0.229,���쐼,6.9,��
2014/12/30,14:30,0.588,0.379,0.623,0.567,0.564,0.257,0.229,�쐼,5.2,��
2014/12/30,14:40,0.589,0.379,0.623,0.566,0.564,0.257,0.228,���쐼,1.7,��
2014/12/30,14:50,0.588,0.378,0.622,0.568,0.564,0.257,0.228,�k�k��,0.9,��
2014/12/30,15:00,0.588,0.378,0.623,0.567,0.562,0.256,0.228,���k��,1.5,��
2014/12/30,15:10,0.587,0.378,0.621,0.566,0.565,0.256,0.228,���쓌,1.1,��
2014/12/30,15:20,0.586,0.379,0.620,0.566,0.564,0.256,0.228,��,1.4,��
2014/12/30,15:30,0.586,0.378,0.622,0.563,0.562,0.255,0.227,��,1.8,��
2014/12/30,15:40,0.586,0.376,0.621,0.564,0.564,0.255,0.228,�k,1.6,��
2014/12/30,15:50,0.586,0.377,0.620,0.565,0.562,0.256,0.227,�k�k��,1.1,��
2014/12/30,16:00,0.586,0.376,0.620,0.565,0.563,0.255,0.228,�k�k��,1.1,��
2014/12/30,16:10,0.588,0.377,0.620,0.565,0.562,0.254,0.228,�k��,4.2,��
2014/12/30,16:20,0.588,0.376,0.619,0.564,0.561,0.255,0.227,��,3.9,��
2014/12/30,16:30,0.587,0.377,0.620,0.563,0.562,0.253,0.228,���k��,6.3,��
2014/12/30,16:40,0.586,0.378,0.620,0.561,0.563,0.255,0.227,�k��,1.9,��
2014/12/30,16:50,0.585,0.377,0.621,0.564,0.563,0.253,0.228,�k,1.4,��
2014/12/30,17:00,0.586,0.376,0.623,0.565,0.562,0.255,0.227,��,1.8,��
2014/12/30,17:10,0.586,0.377,0.623,0.563,0.561,0.256,0.226,���k��,5.6,��
2014/12/30,17:20,0.586,0.377,0.623,0.565,0.560,0.254,0.226,��,5.6,��
2014/12/30,17:30,0.587,0.376,0.622,0.565,0.564,0.255,0.227,��,10.0,��
2014/12/30,17:40,0.587,0.378,0.622,0.564,0.562,0.256,0.227,��,10.9,��
2014/12/30,17:50,0.586,0.376,0.622,0.565,0.563,0.255,0.226,��,12.6,��
2014/12/30,18:00,0.588,0.376,0.622,0.564,0.561,0.255,0.226,��,10.1,��
2014/12/30,18:10,0.588,0.376,0.621,0.564,0.563,0.254,0.227,��,8.1,��
2014/12/30,18:20,0.588,0.376,0.622,0.564,0.564,0.255,0.227,��,7.6,��
2014/12/30,18:30,0.587,0.377,0.621,0.566,0.562,0.255,0.229,���k��,6.7,��
2014/12/30,18:40,0.587,0.376,0.621,0.565,0.562,0.256,0.227,��,4.7,��
2014/12/30,18:50,0.587,0.377,0.621,0.565,0.562,0.255,0.228,��,4.5,��
2014/12/30,19:00,0.587,0.377,0.621,0.565,0.560,0.256,0.228,���k��,2.8,��
2014/12/30,19:10,0.585,0.377,0.621,0.566,0.562,0.255,0.228,��,6.8,��
2014/12/30,19:20,0.588,0.375,0.621,0.564,0.561,0.256,0.227,��,9.5,��
2014/12/30,19:30,0.588,0.377,0.623,0.564,0.563,0.254,0.228,��,9.6,��
2014/12/30,19:40,0.588,0.377,0.622,0.565,0.560,0.255,0.227,��,9.9,��
2014/12/30,19:50,0.587,0.377,0.621,0.565,0.561,0.256,0.227,��,9.8,��
2014/12/30,20:00,0.590,0.377,0.622,0.566,0.562,0.257,0.227,��,7.3,��
2014/12/30,20:10,0.588,0.377,0.623,0.564,0.564,0.256,0.229,��,7.8,��
2014/12/30,20:20,0.588,0.377,0.621,0.565,0.562,0.255,0.227,���쐼,8.4,��
2014/12/30,20:30,0.588,0.377,0.620,0.563,0.563,0.254,0.228,���쐼,4.3,��
2014/12/30,20:40,0.587,0.377,0.622,0.565,0.563,0.255,0.228,���쐼,5.1,��
2014/12/30,20:50,0.587,0.377,0.623,0.564,0.563,0.255,0.227,���쐼,4.3,��
2014/12/30,21:00,0.589,0.376,0.623,0.563,0.564,0.255,0.228,��,5.3,��
2014/12/30,21:10,0.588,0.376,0.624,0.565,0.563,0.256,0.227,��,7.6,��
2014/12/30,21:20,0.588,0.377,0.622,0.564,0.563,0.255,0.227,��,8.1,��
2014/12/30,21:30,0.589,0.377,0.623,0.565,0.563,0.256,0.228,��,9.6,��
2014/12/30,21:40,0.589,0.378,0.623,0.565,0.563,0.255,0.228,��,7.9,��
2014/12/30,21:50,0.588,0.377,0.622,0.566,0.564,0.255,0.228,��,4.2,��
2014/12/30,22:00,0.589,0.377,0.623,0.565,0.564,0.256,0.228,���k��,1.7,��
2014/12/30,22:10,0.586,0.377,0.621,0.567,0.563,0.256,0.227,��,4.2,��
2014/12/30,22:20,0.587,0.377,0.622,0.565,0.562,0.257,0.228,���쐼,4.0,��
2014/12/30,22:30,0.589,0.377,0.624,0.566,0.562,0.255,0.227,���쐼,6.2,��
2014/12/30,22:40,0.591,0.379,0.622,0.566,0.562,0.256,0.228,���쐼,3.6,��
2014/12/30,22:50,0.589,0.378,0.622,0.566,0.562,0.256,0.228,��,3.1,��
2014/12/30,23:00,0.589,0.377,0.621,0.565,0.563,0.256,0.228,��,5.0,��
2014/12/30,23:10,0.590,0.378,0.624,0.566,0.563,0.257,0.228,��,4.6,��
2014/12/30,23:20,0.589,0.378,0.623,0.565,0.562,0.255,0.228,�쐼,2.5,��
2014/12/30,23:30,0.588,0.378,0.623,0.565,0.563,0.256,0.227,���쐼,6.4,��
2014/12/30,23:40,0.587,0.377,0.623,0.565,0.563,0.256,0.228,���쐼,3.8,��
2014/12/30,23:50,0.587,0.377,0.624,0.566,0.564,0.257,0.228,�쐼,3.3,��
